| time (UTC) | temp C | wind direction | speed KPH | gust KPH | rain 1hr cm | rain 24hr cm | rain mn cm | humidity % | barometer mb |
| 20260509223102 | 18 | 334 | 8.0 | 22.5 | 0.00 | 1.40 | 1.12 | 58 | 1004.2 |
| 20260509221557 | 18 | 338 | 8.0 | 25.7 | 0.00 | 1.40 | 1.12 | 57 | 1004.4 |
| 20260509220056 | 18 | 24 | 11.3 | 27.4 | 0.00 | 1.40 | 1.12 | 57 | 1004.3 |
| 20260509214555 | 18 | 327 | 12.9 | 25.7 | 0.00 | 1.40 | 1.12 | 58 | 1004.3 |
| 20260509213056 | 18 | 31 | 4.8 | 19.3 | 0.00 | 1.40 | 1.12 | 59 | 1004.5 |
| 20260509211554 | 18 | 346 | 11.3 | 29.0 | 0.00 | 1.40 | 1.12 | 59 | 1004.5 |
| 20260509210106 | 18 | 332 | 14.5 | 29.0 | 0.00 | 1.40 | 1.12 | 58 | 1004.8 |
| 20260509204601 | 18 | 18 | 11.3 | 24.1 | 0.00 | 1.40 | 1.12 | 58 | 1005.0 |
| 20260509203059 | 17 | 117 | 8.0 | 24.1 | 0.00 | 1.40 | 1.12 | 61 | 1005.0 |
| 20260509201608 | 17 | 324 | 4.8 | 22.5 | 0.00 | 1.40 | 1.12 | 60 | 1005.3 |
| 20260509200107 | 17 | 61 | 6.4 | 25.7 | 0.00 | 1.40 | 1.12 | 63 | 1005.5 |
| 20260509194557 | 17 | 46 | 11.3 | 27.4 | 0.00 | 1.40 | 1.12 | 62 | 1005.5 |
| 20260509193057 | 17 | 335 | 4.8 | 20.9 | 0.00 | 1.40 | 1.12 | 67 | 1005.7 |
| 20260509191557 | 17 | 5 | 6.4 | 27.4 | 0.00 | 1.40 | 1.12 | 70 | 1006.1 |
| 20260509190054 | 16 | 24 | 8.0 | 19.3 | 0.00 | 1.40 | 1.12 | 71 | 1006.0 |
| 20260509184606 | 16 | 355 | 6.4 | 19.3 | 0.00 | 1.47 | 1.12 | 72 | 1006.0 |
| 20260509183059 | 15 | 28 | 6.4 | 20.9 | 0.00 | 1.47 | 1.12 | 74 | 1006.2 |
| 20260509181621 | 15 | 342 | 4.8 | 19.3 | 0.00 | 1.47 | 1.12 | 77 | 1006.3 |
| 20260509180057 | 15 | 344 | 4.8 | 17.7 | 0.00 | 1.47 | 1.12 | 79 | 1006.5 |
| 20260509174558 | 14 | 186 | 4.8 | 17.7 | 0.00 | 1.47 | 1.12 | 82 | 1006.5 |
| 20260509173104 | 13 | 348 | 3.2 | 16.1 | 0.00 | 1.47 | 1.12 | 84 | 1006.6 |
| 20260509171558 | 12 | 346 | 1.6 | 12.9 | 0.00 | 1.47 | 1.12 | 85 | 1006.7 |
| 20260509170058 | 12 | 360 | 3.2 | 9.7 | 0.00 | 1.47 | 1.12 | 86 | 1006.8 |
| 20260509164555 | 12 | 34 | 3.2 | 11.3 | 0.00 | 1.47 | 1.12 | 86 | 1006.7 |
| 20260509163055 | 12 | 360 | 3.2 | 12.9 | 0.00 | 1.47 | 1.12 | 87 | 1006.8 |
| 20260509161600 | 12 | 19 | 3.2 | 9.7 | 0.00 | 1.47 | 1.12 | 87 | 1006.8 |
| 20260509160059 | 11 | 346 | 4.8 | 14.5 | 0.00 | 1.47 | 1.12 | 89 | 1006.4 |
| 20260509154556 | 11 | 344 | 4.8 | 14.5 | 0.00 | 1.47 | 1.12 | 89 | 1006.3 |
| 20260509153057 | 11 | 360 | 3.2 | 12.9 | 0.00 | 1.47 | 1.12 | 89 | 1006.4 |
| 20260509151603 | 11 | 9 | 3.2 | 12.9 | 0.00 | 1.47 | 1.12 | 90 | 1006.3 |
| 20260509150058 | 11 | 15 | 3.2 | 12.9 | 0.00 | 1.47 | 1.12 | 90 | 1006.3 |
| 20260509144610 | 11 | 342 | 3.2 | 17.7 | 0.00 | 1.47 | 1.12 | 90 | 1006.2 |
| 20260509143122 | 10 | 12 | 6.4 | 16.1 | 0.00 | 1.47 | 1.12 | 90 | 1006.3 |
| 20260509141557 | 10 | 5 | 4.8 | 16.1 | 0.00 | 1.47 | 1.12 | 90 | 1006.4 |
| 20260509140106 | 10 | 355 | 3.2 | 12.9 | 0.00 | 1.47 | 1.12 | 91 | 1006.3 |
| 20260509134611 | 10 | 5 | 3.2 | 12.9 | 0.00 | 1.52 | 1.12 | 91 | 1006.4 |
| 20260509133057 | 10 | 23 | 6.4 | 14.5 | 0.00 | 1.52 | 1.12 | 91 | 1006.6 |
| 20260509131558 | 10 | 309 | 4.8 | 9.7 | 0.00 | 1.52 | 1.12 | 91 | 1006.7 |
| 20260509130101 | 10 | 9 | 3.2 | 14.5 | 0.03 | 1.52 | 1.12 | 91 | 1006.6 |
| 20260509124557 | 9 | 31 | 3.2 | 8.0 | 0.03 | 1.52 | 1.12 | 91 | 1006.6 |
| 20260509123130 | 9 | 336 | 1.6 | 9.7 | 0.03 | 1.52 | 1.12 | 91 | 1006.9 |
| 20260509121612 | 9 | 11 | 1.6 | 11.3 | 0.05 | 1.52 | 1.12 | 91 | 1006.9 |
| 20260509120113 | 8 | 0 | 3.2 | 8.0 | 0.03 | 1.47 | 1.09 | 91 | 1007.0 |
| 20260509114601 | 8 | 11 | 0.0 | 4.8 | 0.03 | 1.52 | 1.09 | 91 | 1006.9 |
| 20260509113106 | 8 | 0 | 0.0 | 3.2 | 0.05 | 1.52 | 1.09 | 91 | 1006.8 |
| 20260509111607 | 8 | 360 | 0.0 | 6.4 | 0.05 | 1.47 | 1.07 | 91 | 1006.9 |
| 20260509110100 | 8 | 0 | 0.0 | 3.2 | 0.15 | 1.47 | 1.07 | 90 | 1006.8 |
| 20260509104558 | 8 | 0 | 1.6 | 4.8 | 0.25 | 1.47 | 1.07 | 91 | 1006.6 |
| 20260509103106 | 8 | 0 | 0.0 | 3.2 | 0.36 | 1.47 | 1.04 | 91 | 1006.7 |
| 20260509101624 | 8 | 10 | 1.6 | 4.8 | 0.38 | 1.45 | 1.02 | 90 | 1006.9 |
| 20260509100059 | 8 | 31 | 0.0 | 3.2 | 0.33 | 1.32 | 0.91 | 90 | 1006.9 |
| 20260509094603 | 8 | 341 | 1.6 | 6.4 | 0.30 | 1.24 | 0.81 | 90 | 1007.1 |
| 20260509093108 | 8 | 12 | 1.6 | 4.8 | 0.28 | 1.12 | 0.69 | 90 | 1007.3 |
| 20260509091605 | 8 | 5 | 1.6 | 6.4 | 0.28 | 1.07 | 0.64 | 90 | 1007.3 |
| 20260509084610 | 8 | 0 | 0.0 | 3.2 | 0.33 | 0.97 | 0.51 | 90 | 1007.6 |
| 20260509083058 | 8 | 0 | 0.0 | 4.8 | 0.28 | 0.86 | 0.41 | 90 | 1007.8 |
| 20260509081610 | 8 | 9 | 1.6 | 4.8 | 0.23 | 0.79 | 0.33 | 90 | 1007.7 |
| 20260509074600 | 8 | 0 | 0.0 | 3.2 | 0.08 | 0.64 | 0.18 | 89 | 1007.6 |
| 20260509073107 | 8 | 26 | 1.6 | 4.8 | 0.03 | 0.58 | 0.13 | 89 | 1007.7 |
| 20260509071559 | 8 | 0 | 0.0 | 1.6 | 0.00 | 0.56 | 0.10 | 89 | 1007.6 |
| 20260509070101 | 8 | 0 | 0.0 | 4.8 | 0.00 | 0.56 | 0.10 | 89 | 1007.5 |
| 20260509064620 | 8 | 0 | 0.0 | 3.2 | 0.00 | 0.56 | 0.10 | 89 | 1007.6 |
| 20260509063103 | 8 | 27 | 1.6 | 4.8 | 0.00 | 0.56 | 0.10 | 89 | 1007.8 |
| 20260509061606 | 8 | 11 | 0.0 | 3.2 | 0.00 | 0.56 | 0.10 | 89 | 1008.1 |
| 20260509060101 | 8 | 11 | 0.0 | 4.8 | 0.00 | 0.56 | 0.10 | 89 | 1008.3 |
| 20260509054603 | 8 | 13 | 0.0 | 4.8 | 0.03 | 0.56 | 0.10 | 89 | 1008.6 |
| 20260509053111 | 8 | 15 | 1.6 | 4.8 | 0.05 | 0.56 | 0.10 | 88 | 1008.9 |
| 20260509051609 | 8 | 19 | 1.6 | 4.8 | 0.08 | 0.56 | 0.10 | 88 | 1008.8 |
| 20260509050100 | 8 | 19 | 0.0 | 3.2 | 0.10 | 0.56 | 0.10 | 88 | 1008.9 |
| 20260509044559 | 8 | 0 | 0.0 | 3.2 | 0.10 | 0.53 | 0.08 | 88 | 1009.1 |
| 20260509043100 | 8 | 19 | 1.6 | 4.8 | 0.10 | 0.51 | 0.05 | 88 | 1009.5 |
| 20260509041619 | 8 | 19 | 1.6 | 4.8 | 0.10 | 0.48 | 0.03 | 88 | 1009.8 |
| 20260509040056 | 8 | 0 | 0.0 | 4.8 | 0.10 | 0.46 | 0.00 | 88 | 1009.9 |
| 20260509034556 | 8 | 5 | 0.0 | 4.8 | 0.10 | 0.43 | 0.43 | 87 | 1009.9 |
| 20260509033056 | 8 | 5 | 0.0 | 4.8 | 0.10 | 0.41 | 0.41 | 87 | 1010.1 |
| 20260509031556 | 8 | 5 | 1.6 | 4.8 | 0.10 | 0.38 | 0.38 | 87 | 1010.1 |
| 20260509030059 | 8 | 15 | 0.0 | 3.2 | 0.10 | 0.36 | 0.36 | 87 | 1010.1 |
| 20260509024600 | 8 | 5 | 1.6 | 3.2 | 0.10 | 0.33 | 0.33 | 86 | 1010.4 |
| 20260509023111 | 8 | 11 | 0.0 | 3.2 | 0.08 | 0.30 | 0.30 | 86 | 1010.6 |
| 20260509021601 | 9 | 11 | 0.0 | 1.6 | 0.05 | 0.28 | 0.28 | 86 | 1010.7 |
| 20260509020101 | 9 | 0 | 0.0 | 1.6 | 0.05 | 0.25 | 0.25 | 86 | 1010.4 |
| 20260509014557 | 9 | 0 | 0.0 | 4.8 | 0.03 | 0.23 | 0.23 | 86 | 1010.1 |
| 20260509013102 | 9 | 5 | 0.0 | 3.2 | 0.03 | 0.23 | 0.23 | 85 | 1009.8 |
| 20260509011601 | 9 | 5 | 0.0 | 3.2 | 0.03 | 0.23 | 0.23 | 85 | 1009.5 |
| 20260509010056 | 9 | 0 | 0.0 | 1.6 | 0.00 | 0.20 | 0.20 | 84 | 1009.6 |
| 20260509004558 | 9 | 0 | 1.6 | 4.8 | 0.00 | 0.20 | 0.20 | 84 | 1009.3 |
| 20260509003057 | 9 | 5 | 0.0 | 3.2 | 0.00 | 0.20 | 0.20 | 84 | 1009.2 |
| 20260509001558 | 10 | 0 | 0.0 | 0.0 | 0.00 | 0.20 | 0.20 | 83 | 1009.3 |
| 20260509000111 | 10 | 0 | 0.0 | 0.0 | 0.00 | 0.20 | 0.20 | 83 | 1009.3 |
| 20260508234557 | 10 | 0 | 0.0 | 0.0 | 0.00 | 0.20 | 0.20 | 83 | 1009.0 |
| 20260508233117 | 10 | 0 | 0.0 | 1.6 | 0.03 | 0.20 | 0.20 | 82 | 1008.9 |
| 20260508231559 | 10 | 0 | 0.0 | 1.6 | 0.03 | 0.20 | 0.20 | 81 | 1008.8 |
| 20260508230105 | 10 | 0 | 0.0 | 1.6 | 0.03 | 0.20 | 0.20 | 80 | 1009.2 |
| 20260508224559 | 10 | 0 | 0.0 | 6.4 | 0.03 | 0.20 | 0.20 | 78 | 1009.5 |